Temp
75 75 74 73 72 71 71 71 71 72 72 73 72 72 72 72 72 72 72 72 72 72 72 73 73 73 74 74 73 73 73 72 72 72 71 72 72 71 71 71 71 71 71 71 71 70 70 70 69 68 68 68 68 68 68 69 69 68 68 68 68 68 68 68 68 68 69 68 68
75 75 74 73 72 71 71 71 71 72 72 73 72 72 72 72 72 72 72 73 73 73 73 73 74 74 74 74 74 74 73 73 72 72 72 72 72 72 72 71 71 71 71 71 70 70 70 70 69 68 67 67 67 67 68 69 69 69 68 68 68 68 68 68 68 69 69 69 69
75 75 75 74 73 73 72 72 72 72 72 72 73 73 72 72 72 72 73 73 73 74 73 73 74 74 74 74 74 74 73 73 73 73 72 72 72 72 72 72 71 71 70 70 70 70 70 70 69 68 67 67 67 67 67 68 69 68 68 68 68 68 67 67 68 68 68 68 68
75 75 74 74 74 73 73 72 72 72 72 72 73 73 73 72 72 73 73 74 74 74 74 74 74 74 74 74 74 74 73 73 73 73 73 73 72 72 72 72 71 71 70 70 70 70 70 70 68 68 67 67 67 67 67 68 68 68 68 68 68 68 67 67 67 68 68 67 68
75 75 74 74 74 74 74 74 74 73 73 73 73 73 73 73 73 73 73 73 73 73 74 74 74 74 74 74 74 74 73 73 72 72 73 73 72 72 72 72 71 71 70 70 70 70 70 69 68 68 68 68 67 68 68 68 68 68 68 68 67 67 67 67 67 67 67 67 67
74 74 74 74 74 74 74 74 74 74 74 74 73 73 73 73 73 73 73 73 73 74 74 74 74 74 74 74 74 74 73 73 73 73 73 73 72 72 72 72 72 71 71 71 70 70 70 70 69 68 68 68 68 69 69 69 68 68 68 67 67 67 67 67 67 67 67 66 66
75 74 74 74 74 74 74 74 74 75 74 74 73 73 73 73 73 73 73 74 74 74 73 73 73 73 74 74 73 73 73 73 73 73 73 73 73 72 72 72 72 72 71 71 70 70 70 70 69 68 67 67 67 68 69 69 68 68 67 67 67 67 66 66 66 66 66 66 66
74 74 74 74 74 74 74 74 74 74 74 74 74 73 73 73 73 73 74 74 74 74 74 73 74 74 73 73 73 73 73 73 73 73 73 73 72 72 72 72 72 72 72 71 71 70 70 70 69 68 68 67 67 67 68 68 68 67 67 67 67 66 66 66 66 66 66 66 65
74 74 74 74 74 74 74 74 74 74 74 74 74 74 74 74 73 74 74 74 74 74 74 74 74 74 74 73 73 73 73 73 73 73 73 72 72 72 72 72 72 72 72 72 71 71 70 70 69 68 68 68 67 68 68 68 67 67 67 66 66 66 66 66 66 66 66 65 65
73 74 74 74 74 74 74 74 74 74 74 74 74 74 74 72 73 74 74 74 74 74 74 74 74 74 74 73 73 73 73 73 72 72 72 72 72 72 72 72 72 72 72 72 72 71 70 69 69 69 68 68 68 68 68 68 67 66 66 66 66 66 66 66 66 66 65 65 64
73 73 73 73 73 73 73 73 73 73 74 74 74 74 74 73 73 74 74 74 74 74 74 74 74 74 73 73 73 73 73 73 73 72 72 72 72 72 72 72 72 72 72 72 72 71 70 69 69 69 69 69 69 69 68 68 67 66 66 66 65 66 66 65 65 65 65 64 64
73 73 73 73 73 73 72 73 73 73 73 73 74 74 74 74 74 74 74 74 74 74 74 74 74 73 73 73 73 73 73 73 73 73 73 73 72 72 72 72 72 72 72 72 72 71 70 70 69 69 69 69 69 69 69 68 67 66 65 65 65 65 65 65 65 65 65 64 63
72 73 73 73 72 72 72 72 73 73 73 73 73 74 74 75 75 75 75 74 74 74 74 74 73 73 73 73 73 73 74 74 74 74 73 73 73 73 72 72 72 72 72 72 72 71 70 70 69 69 69 69 69 69 69 69 68 66 65 64 64 64 64 65 65 65 64 63 62
73 72 72 72 72 72 72 72 72 73 73 73 74 74 75 75 75 75 75 75 75 75 74 74 74 73 73 73 73 74 74 74 74 74 73 73 73 73 72 72 72 72 72 72 72 71 71 70 69 69 69 69 69 69 69 69 68 67 65 64 64 64 64 64 65 64 63 61 60
73 73 72 72 72 72 72 72 72 73 73 73 74 74 75 76 75 75 75 75 75 75 74 74 74 74 74 74 74 74 74 74 74 74 73 73 73 73 73 72 72 72 72 72 71 71 71 70 70 69 69 69 69 69 69 69 69 68 66 65 64 64 64 64 64 63 62 61 60
73 73 72 72 72 72 72 72 73 73 74 74 74 75 75 76 76 75 75 75 75 75 75 74 75 74 74 74 74 74 74 74 74 74 73 73 73 73 73 72 72 72 72 71 71 71 70 70 70 69 69 69 69 69 69 69 68 68 66 65 65 64 64 63 63 62 61 60 59
73 72 72 72 72 72 72 72 73 74 74 74 74 75 75 76 76 75 74 74 75 75 75 74 75 75 74 74 74 74 74 74 74 73 73 73 73 73 73 72 72 72 71 71 71 70 70 70 70 70 69 69 69 68 68 68 68 67 66 65 64 64 63 63 62 61 60 59 58
72 72 72 72 72 72 72 72 72 73 73 74 74 74 75 75 75 75 74 74 74 74 74 74 74 74 74 74 74 74 73 73 73 73 73 73 73 73 73 72 72 72 71 71 70 70 70 70 70 70 69 69 68 68 68 68 67 66 65 65 64 64 63 63 62 60 59 57 57
72 72 72 72 72 72 72 72 72 72 73 74 74 74 74 74 74 74 74 74 74 74 74 74 74 74 74 74 74 74 73 73 73 73 73 73 73 73 73 72 72 72 71 71 70 70 70 70 70 69 69 69 68 68 68 67 67 66 65 64 64 63 63 63 62 60 59 58 58
71 71 72 72 72 72 72 72 72 73 73 74 74 74 74 74 74 74 74 74 74 74 74 74 74 74 74 74 74 74 73 73 73 73 73 73 73 73 73 73 72 72 71 70 70 70 70 70 70 69 69 68 68 67 67 67 66 66 65 64 64 63 63 63 62 61 60 59 58
70 70 71 71 71 72 72 72 73 73 73 74 73 73 73 73 73 73 73 73 74 74 74 73 74 74 74 73 73 73 74 73 73 73 73 73 73 73 73 73 72 72 72 71 70 70 70 70 69 69 68 67 67 66 66 66 65 65 65 64 64 63 63 62 61 61 60 59 58
67 67 68 68 69 70 71 71 72 72 73 73 73 73 73 73 73 73 73 73 73 73 73 73 73 73 73 73 73 73 73 73 73 73 73 73 73 73 73 73 72 72 71 70 70 69 69 69 68 67 66 65 65 65 65 65 65 65 64 64 63 63 62 61 61 60 60 59 58
64 65 65 65 66 67 68 69 70 70 71 71 72 72 72 72 73 73 73 73 73 73 73 73 73 73 73 73 73 73 73 73 73 73 73 73 73 73 73 73 72 71 70 70 69 68 67 67 66 65 64 63 63 64 65 65 65 64 64 63 63 62 61 60 59 59 58 57 56
63 63 64 65 65 66 66 67 67 68 69 69 70 71 71 71 72 72 72 72 72 72 72 73 73 73 73 73 73 73 73 72 72 72 72 73 73 73 73 72 72 71 70 69 68 66 65 65 64 63 62 62 63 65 66 66 65 64 63 62 61 60 59 58 57 56 56 55 54
62 62 63 64 64 65 65 66 66 67 68 68 69 69 70 70 70 71 71 71 71 71 72 72 72 72 72 72 72 72 72 72 72 72 72 72 72 72 72 72 71 70 70 68 63 61 61 62 63 63 62 63 64 65 65 65 65 64 62 61 60 58 57 56 55 54 54 54 53
62 62 63 63 64 64 65 65 66 66 67 67 68 68 69 69 70 70 70 70 70 70 70 71 71 71 71 71 72 72 72 71 71 71 71 71 71 71 71 71 71 70 69 65 61 59 58 59 60 61 63 64 65 65 64 64 63 62 61 60 58 57 56 55 54 53 52 52 52
62 62 63 63 64 64 65 65 65 65 66 66 67 67 68 68 69 69 69 69 69 69 70 70 70 69 69 71 71 71 71 71 70 70 70 70 70 70 70 70 70 69 67 62 60 58 58 58 58 59 60 64 64 64 63 62 62 61 59 58 57 56 55 54 53 52 50 50 50
61 62 62 63 64 64 64 65 65 65 66 66 66 67 67 68 68 68 69 69 69 69 69 69 69 70 70 70 70 70 70 70 70 70 70 70 69 69 69 70 70 68 65 60 59 58 58 58 57 57 58 61 62 62 61 61 60 59 57 56 56 55 54 53 52 51 50 49 48
61 61 62 63 63 64 64 65 65 65 65 66 66 66 66 66 67 68 68 68 68 68 69 69 69 70 70 69 69 69 69 70 70 69 69 69 69 69 69 69 68 66 61 57 57 57 57 57 57 56 56 57 59 60 60 59 58 57 57 56 55 54 53 53 52 51 50 48 47
60 61 61 62 63 63 64 64 64 64 65 65 65 65 65 66 66 67 67 68 68 68 68 69 69 69 69 69 69 69 69 69 69 69 69 68 68 68 68 68 68 65 61 56 56 57 56 56 56 56 56 55 57 58 59 58 57 57 56 56 55 55 54 53 52 51 49 48 47
60 60 61 62 62 63 63 63 64 64 65 65 65 65 66 66 66 67 67 67 67 67 66 66 67 67 67 67 68 68 68 68 68 68 68 68 67 67 67 67 67 65 60 55 56 56 56 56 56 56 55 55 57 58 58 58 57 57 56 55 55 54 53 52 51 49 48 47 46
59 60 60 61 61 62 62 63 64 64 65 65 65 65 66 66 66 66 66 66 66 66 66 66 66 66 66 67 67 67 67 67 67 66 66 66 66 66 66 66 66 64 60 54 55 56 56 56 55 55 55 55 56 57 58 57 57 56 56 55 55 54 52 51 50 48 47 46 45
59 60 60 60 60 61 61 62 63 64 65 65 65 65 65 65 65 65 65 65 65 65 66 66 66 66 66 66 66 66 66 66 65 65 65 64 64 64 65 65 66 63 59 54 55 55 55 55 55 55 55 54 55 56 57 57 56 56 55 55 54 52 51 50 49 48 47 46 45
59 60 60 60 60 60 61 62 63 64 64 64 64 64 64 63 64 64 64 64 64 65 65 65 65 65 65 65 65 65 65 65 65 64 64 64 63 63 63 64 65 61 56 54 55 55 55 55 55 55 54 54 55 56 56 56 56 55 54 53 52 51 50 50 48 47 47 46 45
59 59 59 60 60 60 60 61 62 62 63 62 62 62 62 61 61 61 62 62 63 64 64 64 64 65 65 65 64 64 64 64 64 64 64 63 63 62 61 62 62 58 53 54 54 54 55 55 54 54 54 54 55 56 56 56 55 54 53 52 51 50 49 48 47 46 45 45 45
58 59 59 59 59 60 60 60 61 61 61 60 60 60 60 60 60 60 60 61 63 63 63 63 63 63 63 63 63 63 62 63 63 63 63 62 61 60 60 60 59 56 52 52 53 54 54 54 54 54 53 54 56 56 56 55 54 53 52 50 49 48 47 47 45 44 42 42 43
58 58 58 59 59 59 59 59 60 60 59 59 58 58 58 59 58 59 60 61 62 62 62 62 62 62 61 61 61 60 60 60 60 60 60 59 59 58 58 58 57 55 53 52 52 53 53 54 54 53 54 55 56 56 55 54 53 51 50 48 47 46 46 45 44 43 40 38 41
58 58 58 58 59 59 59 59 59 58 58 58 57 57 58 58 58 58 58 59 60 60 60 60 59 59 59 59 58 57 57 56 57 57 57 57 57 56 56 56 56 54 52 51 51 52 52 53 53 53 54 56 56 55 54 52 51 49 48 47 45 44 44 44 43 43 42 40 42
58 58 58 58 58 58 59 58 58 57 57 57 57 57 57 57 57 57 57 58 59 59 58 57 57 57 57 56 56 55 54 54 54 55 55 55 55 54 54 55 55 54 53 50 50 51 51 52 53 53 53 55 55 54 53 52 50 49 47 46 44 43 42 43 43 42 42 41 43
57 58 58 58 58 58 58 57 57 56 56 56 56 57 57 56 57 57 57 58 58 57 57 56 55 55 55 55 54 54 53 53 53 54 54 54 54 53 53 55 55 55 54 51 50 50 51 51 52 52 53 55 55 54 53 51 50 49 48 46 45 43 43 42 42 42 42 41 43
57 57 57 57 57 57 57 57 56 55 55 55 56 56 56 56 57 57 58 58 57 56 56 55 55 55 55 54 54 54 54 53 53 54 55 54 54 54 54 55 56 56 55 53 51 50 50 51 52 52 53 54 54 54 52 51 49 49 48 47 46 44 43 42 42 42 42 42 42
MSLP
1009.75 1009.91 1010.03 1010.23 1010.39 1010.55 1010.67 1010.71 1010.75 1010.83 1010.83 1010.95 1011.03 1011.11 1011.23 1011.31 1011.39 1011.39 1011.47 1011.55 1011.55 1011.63 1011.67 1011.71 1011.71 1011.71 1011.75 1011.83 1011.95 1012.03 1012.11 1012.23 1012.27 1012.39 1012.43 1012.47 1012.55 1012.59 1012.67 1012.83 1012.87 1012.95 1013.03 1013.11 1013.15 1013.27 1013.35 1013.43 1013.55 1013.63 1013.67 1013.71 1013.71 1013.71 1013.71 1013.71 1013.75 1013.79 1013.83 1013.83 1013.83 1013.83 1013.83 1013.83 1013.83 1013.83 1013.87 1013.95 1013.99
1009.63 1009.75 1009.91 1010.07 1010.23 1010.43 1010.55 1010.59 1010.67 1010.75 1010.83 1010.83 1010.91 1010.99 1011.11 1011.19 1011.27 1011.27 1011.35 1011.35 1011.39 1011.43 1011.47 1011.47 1011.51 1011.55 1011.55 1011.63 1011.71 1011.83 1011.91 1011.99 1012.11 1012.15 1012.23 1012.27 1012.27 1012.39 1012.51 1012.59 1012.67 1012.75 1012.83 1012.87 1012.99 1013.07 1013.11 1013.27 1013.35 1013.39 1013.43 1013.51 1013.51 1013.55 1013.51 1013.51 1013.51 1013.55 1013.55 1013.55 1013.59 1013.63 1013.67 1013.67 1013.59 1013.59 1013.63 1013.71 1013.71
1009.55 1009.63 1009.79 1009.95 1010.11 1010.23 1010.39 1010.47 1010.55 1010.63 1010.67 1010.71 1010.83 1010.91 1010.99 1011.07 1011.11 1011.15 1011.15 1011.15 1011.19 1011.23 1011.27 1011.31 1011.35 1011.39 1011.43 1011.47 1011.55 1011.63 1011.71 1011.79 1011.87 1011.95 1011.99 1012.03 1012.11 1012.19 1012.27 1012.31 1012.43 1012.55 1012.63 1012.71 1012.83 1012.87 1012.95 1012.99 1013.11 1013.19 1013.27 1013.27 1013.31 1013.31 1013.31 1013.27 1013.31 1013.31 1013.31 1013.31 1013.39 1013.39 1013.39 1013.39 1013.39 1013.39 1013.43 1013.47 1013.51
1009.39 1009.55 1009.67 1009.79 1009.91 1010.03 1010.11 1010.23 1010.31 1010.39 1010.51 1010.59 1010.67 1010.79 1010.87 1010.95 1010.99 1011.03 1011.03 1011.03 1011.03 1011.11 1011.11 1011.15 1011.19 1011.19 1011.27 1011.31 1011.39 1011.43 1011.55 1011.63 1011.71 1011.75 1011.83 1011.87 1011.95 1011.99 1012.07 1012.15 1012.27 1012.35 1012.43 1012.51 1012.59 1012.67 1012.71 1012.83 1012.91 1012.99 1012.99 1013.03 1013.07 1013.07 1013.03 1013.07 1013.11 1013.11 1013.11 1013.11 1013.15 1013.23 1013.23 1013.27 1013.27 1013.27 1013.31 1013.31 1013.35
1009.35 1009.43 1009.55 1009.63 1009.71 1009.83 1009.91 1010.03 1010.11 1010.23 1010.35 1010.47 1010.55 1010.67 1010.71 1010.79 1010.83 1010.83 1010.87 1010.91 1010.91 1010.95 1010.99 1010.99 1011.03 1011.07 1011.11 1011.15 1011.27 1011.31 1011.39 1011.47 1011.55 1011.59 1011.63 1011.71 1011.71 1011.79 1011.87 1011.99 1012.07 1012.15 1012.27 1012.35 1012.39 1012.47 1012.55 1012.67 1012.75 1012.83 1012.83 1012.83 1012.83 1012.83 1012.83 1012.83 1012.87 1012.91 1012.95 1012.99 1012.99 1013.03 1013.07 1013.07 1013.11 1013.11 1013.15 1013.19 1013.19
1009.27 1009.31 1009.39 1009.51 1009.59 1009.71 1009.79 1009.87 1009.95 1010.03 1010.15 1010.27 1010.39 1010.47 1010.55 1010.59 1010.67 1010.67 1010.71 1010.71 1010.71 1010.75 1010.83 1010.87 1010.91 1010.95 1010.99 1011.03 1011.11 1011.15 1011.23 1011.31 1011.35 1011.39 1011.43 1011.51 1011.55 1011.59 1011.71 1011.79 1011.83 1011.95 1011.99 1012.11 1012.15 1012.27 1012.35 1012.43 1012.51 1012.55 1012.59 1012.63 1012.63 1012.55 1012.55 1012.67 1012.67 1012.71 1012.71 1012.79 1012.83 1012.87 1012.91 1012.95 1012.95 1012.99 1013.03 1013.03 1013.03
1009.11 1009.19 1009.27 1009.35 1009.43 1009.55 1009.63 1009.71 1009.79 1009.83 1009.99 1010.07 1010.15 1010.27 1010.31 1010.35 1010.43 1010.47 1010.47 1010.51 1010.55 1010.63 1010.67 1010.71 1010.79 1010.83 1010.87 1010.87 1010.99 1010.99 1011.07 1011.11 1011.15 1011.23 1011.27 1011.27 1011.35 1011.39 1011.47 1011.55 1011.63 1011.71 1011.79 1011.83 1011.99 1012.07 1012.15 1012.23 1012.31 1012.35 1012.39 1012.39 1012.39 1012.39 1012.39 1012.43 1012.51 1012.51 1012.51 1012.55 1012.59 1012.67 1012.71 1012.75 1012.79 1012.83 1012.83 1012.83 1012.83
1008.99 1009.07 1009.15 1009.27 1009.35 1009.43 1009.51 1009.59 1009.67 1009.75 1009.83 1009.91 1009.99 1010.03 1010.11 1010.15 1010.23 1010.27 1010.31 1010.39 1010.43 1010.47 1010.47 1010.55 1010.59 1010.67 1010.71 1010.75 1010.83 1010.83 1010.83 1010.91 1010.99 1010.99 1011.03 1011.11 1011.15 1011.19 1011.27 1011.35 1011.39 1011.47 1011.55 1011.67 1011.75 1011.83 1011.91 1011.99 1012.07 1012.07 1012.11 1012.19 1012.19 1012.19 1012.19 1012.27 1012.27 1012.31 1012.31 1012.31 1012.35 1012.43 1012.51 1012.55 1012.59 1012.59 1012.59 1012.59 1012.63
1008.95 1008.99 1009.07 1009.15 1009.27 1009.35 1009.39 1009.47 1009.55 1009.63 1009.71 1009.75 1009.79 1009.83 1009.91 1009.99 1010.03 1010.11 1010.15 1010.23 1010.23 1010.27 1010.27 1010.35 1010.39 1010.47 1010.55 1010.59 1010.63 1010.63 1010.67 1010.75 1010.79 1010.83 1010.87 1010.95 1010.99 1011.03 1011.11 1011.15 1011.19 1011.27 1011.31 1011.39 1011.51 1011.59 1011.71 1011.79 1011.83 1011.83 1011.87 1011.91 1011.95 1011.95 1011.99 1012.03 1012.07 1012.11 1012.11 1012.11 1012.11 1012.15 1012.23 1012.27 1012.35 1012.39 1012.39 1012.43 1012.47
1008.83 1008.87 1008.99 1009.07 1009.15 1009.27 1009.31 1009.39 1009.43 1009.51 1009.55 1009.59 1009.63 1009.71 1009.75 1009.83 1009.91 1009.99 1009.99 1009.99 1010.03 1010.11 1010.11 1010.15 1010.23 1010.27 1010.35 1010.39 1010.43 1010.51 1010.55 1010.55 1010.59 1010.67 1010.71 1010.79 1010.83 1010.91 1010.95 1010.95 1010.99 1011.03 1011.11 1011.15 1011.27 1011.35 1011.43 1011.55 1011.59 1011.63 1011.63 1011.67 1011.71 1011.71 1011.71 1011.79 1011.87 1011.91 1011.91 1011.91 1011.95 1011.99 1011.99 1012.03 1012.11 1012.19 1012.23 1012.27 1012.31
1008.75 1008.79 1008.83 1008.99 1009.03 1009.11 1009.27 1009.31 1009.39 1009.43 1009.47 1009.51 1009.51 1009.55 1009.59 1009.67 1009.71 1009.79 1009.83 1009.83 1009.87 1009.91 1009.95 1009.99 1010.03 1010.11 1010.15 1010.23 1010.27 1010.31 1010.39 1010.39 1010.43 1010.51 1010.55 1010.59 1010.63 1010.67 1010.71 1010.75 1010.83 1010.83 1010.91 1010.95 1011.03 1011.11 1011.23 1011.27 1011.35 1011.35 1011.39 1011.39 1011.43 1011.47 1011.47 1011.55 1011.63 1011.71 1011.71 1011.71 1011.75 1011.79 1011.79 1011.83 1011.91 1011.99 1012.03 1012.07 1012.15
1008.67 1008.71 1008.79 1008.87 1008.99 1009.07 1009.15 1009.27 1009.27 1009.31 1009.35 1009.39 1009.39 1009.39 1009.47 1009.47 1009.51 1009.55 1009.63 1009.71 1009.71 1009.75 1009.75 1009.83 1009.87 1009.99 1010.03 1010.03 1010.11 1010.11 1010.15 1010.19 1010.23 1010.27 1010.31 1010.39 1010.39 1010.47 1010.51 1010.55 1010.59 1010.67 1010.67 1010.75 1010.83 1010.91 1010.99 1011.03 1011.11 1011.11 1011.11 1011.19 1011.23 1011.23 1011.23 1011.27 1011.39 1011.47 1011.51 1011.55 1011.59 1011.63 1011.63 1011.63 1011.71 1011.75 1011.83 1011.95 1012.03
1008.63 1008.67 1008.75 1008.83 1008.87 1008.99 1009.07 1009.11 1009.15 1009.19 1009.19 1009.23 1009.27 1009.27 1009.27 1009.31 1009.31 1009.35 1009.43 1009.55 1009.55 1009.55 1009.55 1009.63 1009.71 1009.83 1009.87 1009.91 1009.95 1009.95 1009.99 1009.99 1009.99 1010.07 1010.11 1010.15 1010.19 1010.27 1010.27 1010.31 1010.39 1010.47 1010.51 1010.55 1010.63 1010.67 1010.75 1010.79 1010.87 1010.91 1010.95 1010.95 1010.99 1010.99 1010.99 1011.03 1011.11 1011.23 1011.31 1011.39 1011.39 1011.47 1011.47 1011.47 1011.51 1011.59 1011.71 1011.83 1011.95
1008.51 1008.55 1008.67 1008.71 1008.83 1008.87 1008.95 1008.99 1009.03 1009.03 1009.03 1009.07 1009.07 1009.11 1009.11 1009.11 1009.11 1009.15 1009.23 1009.27 1009.31 1009.39 1009.39 1009.43 1009.55 1009.63 1009.67 1009.71 1009.71 1009.75 1009.79 1009.79 1009.83 1009.83 1009.91 1009.95 1009.99 1010.03 1010.07 1010.11 1010.15 1010.23 1010.27 1010.31 1010.39 1010.47 1010.55 1010.55 1010.63 1010.67 1010.71 1010.71 1010.75 1010.75 1010.79 1010.83 1010.87 1010.99 1011.11 1011.19 1011.23 1011.27 1011.31 1011.31 1011.35 1011.43 1011.59 1011.71 1011.83
1008.35 1008.39 1008.51 1008.59 1008.67 1008.75 1008.79 1008.83 1008.83 1008.83 1008.83 1008.83 1008.83 1008.87 1008.87 1008.87 1008.91 1008.95 1008.99 1009.07 1009.15 1009.19 1009.23 1009.31 1009.35 1009.39 1009.39 1009.47 1009.55 1009.55 1009.55 1009.55 1009.63 1009.67 1009.71 1009.71 1009.75 1009.83 1009.83 1009.87 1009.91 1009.99 1010.03 1010.11 1010.15 1010.23 1010.27 1010.35 1010.39 1010.47 1010.55 1010.55 1010.55 1010.55 1010.59 1010.59 1010.63 1010.71 1010.83 1010.95 1010.99 1011.07 1011.11 1011.15 1011.19 1011.31 1011.47 1011.59 1011.71
1008.23 1008.27 1008.39 1008.47 1008.55 1008.59 1008.63 1008.67 1008.67 1008.67 1008.67 1008.67 1008.67 1008.67 1008.67 1008.67 1008.67 1008.75 1008.83 1008.91 1008.99 1008.99 1009.07 1009.11 1009.11 1009.15 1009.19 1009.27 1009.31 1009.39 1009.39 1009.39 1009.43 1009.47 1009.51 1009.51 1009.55 1009.55 1009.63 1009.67 1009.71 1009.75 1009.83 1009.91 1009.99 1010.03 1010.11 1010.15 1010.19 1010.27 1010.31 1010.35 1010.39 1010.39 1010.43 1010.43 1010.47 1010.55 1010.63 1010.71 1010.83 1010.87 1010.95 1010.99 1011.11 1011.23 1011.39 1011.47 1011.59
1008.11 1008.19 1008.27 1008.35 1008.39 1008.43 1008.47 1008.51 1008.51 1008.47 1008.47 1008.47 1008.51 1008.55 1008.55 1008.55 1008.55 1008.59 1008.67 1008.75 1008.79 1008.83 1008.87 1008.91 1008.95 1008.99 1009.03 1009.07 1009.11 1009.19 1009.23 1009.27 1009.27 1009.27 1009.27 1009.27 1009.31 1009.35 1009.35 1009.39 1009.51 1009.55 1009.63 1009.71 1009.79 1009.83 1009.87 1009.95 1009.99 1010.03 1010.11 1010.15 1010.19 1010.23 1010.27 1010.31 1010.35 1010.39 1010.47 1010.55 1010.67 1010.75 1010.83 1010.91 1011.03 1011.15 1011.27 1011.39 1011.51
1008.07 1008.11 1008.15 1008.19 1008.27 1008.27 1008.31 1008.35 1008.39 1008.35 1008.35 1008.35 1008.35 1008.39 1008.39 1008.39 1008.43 1008.47 1008.51 1008.55 1008.67 1008.67 1008.71 1008.75 1008.79 1008.83 1008.87 1008.91 1008.91 1008.99 1008.99 1009.03 1009.03 1009.07 1009.07 1009.07 1009.11 1009.11 1009.15 1009.19 1009.27 1009.35 1009.43 1009.51 1009.59 1009.67 1009.71 1009.75 1009.83 1009.87 1009.95 1009.99 1010.03 1010.07 1010.11 1010.11 1010.15 1010.27 1010.35 1010.43 1010.51 1010.59 1010.67 1010.79 1010.87 1010.99 1011.15 1011.27 1011.35
1007.99 1007.99 1008.03 1008.11 1008.11 1008.15 1008.19 1008.23 1008.27 1008.27 1008.27 1008.27 1008.27 1008.27 1008.27 1008.27 1008.31 1008.35 1008.39 1008.43 1008.51 1008.55 1008.59 1008.59 1008.63 1008.67 1008.67 1008.71 1008.75 1008.79 1008.83 1008.83 1008.87 1008.87 1008.87 1008.91 1008.91 1008.95 1008.99 1009.03 1009.07 1009.15 1009.27 1009.35 1009.39 1009.47 1009.55 1009.59 1009.67 1009.71 1009.75 1009.83 1009.87 1009.91 1009.95 1009.99 1010.03 1010.11 1010.19 1010.27 1010.35 1010.39 1010.51 1010.55 1010.67 1010.83 1010.95 1011.07 1011.11
1007.99 1007.95 1007.95 1007.99 1007.99 1008.03 1008.03 1008.07 1008.11 1008.11 1008.11 1008.11 1008.15 1008.15 1008.15 1008.19 1008.23 1008.27 1008.27 1008.31 1008.31 1008.35 1008.39 1008.47 1008.47 1008.51 1008.51 1008.55 1008.59 1008.63 1008.63 1008.67 1008.67 1008.67 1008.71 1008.71 1008.75 1008.79 1008.83 1008.87 1008.95 1008.99 1009.07 1009.15 1009.23 1009.27 1009.35 1009.43 1009.47 1009.55 1009.59 1009.63 1009.71 1009.79 1009.83 1009.83 1009.91 1009.99 1010.03 1010.11 1010.15 1010.23 1010.31 1010.39 1010.47 1010.63 1010.75 1010.83 1010.95
1007.99 1007.95 1007.91 1007.91 1007.91 1007.95 1007.95 1007.95 1007.99 1007.99 1007.99 1007.99 1008.03 1008.03 1008.07 1008.11 1008.11 1008.11 1008.15 1008.15 1008.19 1008.23 1008.27 1008.27 1008.31 1008.35 1008.39 1008.39 1008.43 1008.43 1008.43 1008.47 1008.51 1008.51 1008.55 1008.55 1008.55 1008.63 1008.67 1008.67 1008.75 1008.83 1008.87 1008.99 1009.03 1009.11 1009.15 1009.27 1009.31 1009.39 1009.43 1009.51 1009.55 1009.63 1009.71 1009.71 1009.79 1009.83 1009.91 1009.99 1009.99 1010.03 1010.11 1010.23 1010.31 1010.43 1010.59 1010.71 1010.83
1008.15 1008.15 1008.11 1008.11 1008.07 1008.03 1007.99 1007.99 1007.99 1007.95 1007.95 1007.95 1007.99 1007.99 1007.99 1007.99 1007.99 1007.99 1008.03 1008.03 1008.11 1008.11 1008.15 1008.15 1008.19 1008.19 1008.23 1008.27 1008.27 1008.27 1008.27 1008.31 1008.31 1008.35 1008.35 1008.35 1008.39 1008.39 1008.43 1008.51 1008.55 1008.63 1008.71 1008.79 1008.87 1008.99 1009.03 1009.11 1009.15 1009.27 1009.35 1009.43 1009.51 1009.55 1009.55 1009.59 1009.71 1009.71 1009.75 1009.83 1009.87 1009.95 1010.03 1010.11 1010.27 1010.35 1010.47 1010.59 1010.71
1008.35 1008.35 1008.35 1008.31 1008.27 1008.27 1008.23 1008.15 1008.11 1008.07 1008.03 1007.99 1007.99 1007.99 1007.95 1007.95 1007.91 1007.91 1007.91 1007.95 1007.99 1008.03 1008.03 1008.03 1008.03 1008.03 1008.07 1008.11 1008.11 1008.11 1008.15 1008.19 1008.15 1008.15 1008.19 1008.19 1008.23 1008.23 1008.27 1008.35 1008.39 1008.47 1008.55 1008.67 1008.75 1008.87 1008.99 1009.03 1009.11 1009.23 1009.31 1009.39 1009.43 1009.47 1009.51 1009.55 1009.55 1009.59 1009.67 1009.71 1009.75 1009.87 1009.99 1010.11 1010.19 1010.31 1010.39 1010.51 1010.67
1008.47 1008.43 1008.39 1008.35 1008.35 1008.31 1008.27 1008.27 1008.23 1008.15 1008.11 1008.07 1008.03 1007.99 1007.95 1007.91 1007.91 1007.87 1007.87 1007.91 1007.91 1007.91 1007.91 1007.87 1007.87 1007.91 1007.95 1007.95 1007.99 1007.99 1007.99 1008.03 1007.99 1008.03 1008.03 1008.03 1008.07 1008.11 1008.11 1008.19 1008.27 1008.35 1008.43 1008.51 1008.59 1008.75 1008.83 1008.95 1009.07 1009.15 1009.27 1009.31 1009.35 1009.39 1009.39 1009.39 1009.43 1009.51 1009.55 1009.67 1009.71 1009.83 1009.99 1010.11 1010.23 1010.31 1010.39 1010.51 1010.59
1008.55 1008.51 1008.43 1008.39 1008.35 1008.31 1008.27 1008.23 1008.15 1008.11 1008.11 1008.07 1008.03 1007.99 1007.95 1007.91 1007.87 1007.87 1007.91 1007.87 1007.83 1007.83 1007.83 1007.83 1007.79 1007.79 1007.83 1007.83 1007.83 1007.83 1007.83 1007.87 1007.91 1007.95 1007.95 1007.91 1007.99 1007.99 1008.03 1008.11 1008.15 1008.23 1008.31 1008.39 1008.55 1008.67 1008.79 1008.83 1008.91 1009.03 1009.11 1009.19 1009.27 1009.27 1009.27 1009.31 1009.35 1009.39 1009.51 1009.59 1009.71 1009.83 1009.95 1010.07 1010.19 1010.27 1010.39 1010.47 1010.55
1008.55 1008.47 1008.39 1008.39 1008.35 1008.31 1008.27 1008.23 1008.15 1008.11 1008.03 1008.03 1007.99 1007.99 1007.91 1007.87 1007.83 1007.83 1007.83 1007.83 1007.79 1007.79 1007.79 1007.79 1007.75 1007.75 1007.75 1007.75 1007.75 1007.75 1007.75 1007.75 1007.79 1007.83 1007.83 1007.83 1007.87 1007.91 1007.99 1008.03 1008.07 1008.11 1008.15 1008.27 1008.39 1008.55 1008.67 1008.79 1008.83 1008.95 1008.99 1009.07 1009.11 1009.19 1009.23 1009.27 1009.27 1009.39 1009.47 1009.59 1009.71 1009.79 1009.87 1009.99 1010.11 1010.23 1010.35 1010.43 1010.55
1008.51 1008.47 1008.43 1008.39 1008.35 1008.27 1008.23 1008.23 1008.15 1008.11 1008.07 1008.03 1007.99 1007.95 1007.87 1007.83 1007.83 1007.79 1007.79 1007.75 1007.71 1007.71 1007.71 1007.71 1007.71 1007.71 1007.71 1007.71 1007.71 1007.67 1007.67 1007.67 1007.67 1007.71 1007.75 1007.79 1007.83 1007.83 1007.87 1007.95 1007.99 1007.99 1008.03 1008.19 1008.31 1008.47 1008.59 1008.71 1008.83 1008.95 1008.99 1009.03 1009.07 1009.11 1009.15 1009.23 1009.27 1009.35 1009.47 1009.55 1009.67 1009.75 1009.83 1009.95 1010.03 1010.19 1010.35 1010.43 1010.55
1008.55 1008.51 1008.47 1008.43 1008.35 1008.27 1008.23 1008.23 1008.15 1008.11 1008.03 1008.03 1007.99 1007.95 1007.87 1007.83 1007.79 1007.75 1007.71 1007.71 1007.67 1007.67 1007.71 1007.67 1007.63 1007.63 1007.67 1007.63 1007.59 1007.55 1007.55 1007.55 1007.59 1007.67 1007.71 1007.75 1007.75 1007.83 1007.83 1007.87 1007.87 1007.87 1007.99 1008.15 1008.31 1008.43 1008.55 1008.67 1008.79 1008.91 1008.99 1009.03 1009.07 1009.11 1009.15 1009.23 1009.27 1009.39 1009.47 1009.55 1009.63 1009.71 1009.79 1009.87 1009.99 1010.11 1010.27 1010.43 1010.55
1008.67 1008.59 1008.51 1008.39 1008.31 1008.27 1008.23 1008.19 1008.11 1008.11 1008.03 1007.99 1007.99 1007.95 1007.87 1007.83 1007.79 1007.71 1007.67 1007.63 1007.63 1007.63 1007.59 1007.55 1007.55 1007.55 1007.55 1007.55 1007.55 1007.55 1007.55 1007.55 1007.55 1007.63 1007.67 1007.71 1007.75 1007.79 1007.83 1007.83 1007.83 1007.95 1008.07 1008.27 1008.35 1008.47 1008.59 1008.67 1008.79 1008.91 1008.99 1009.07 1009.07 1009.07 1009.11 1009.19 1009.27 1009.31 1009.39 1009.51 1009.55 1009.67 1009.75 1009.83 1009.91 1010.07 1010.23 1010.39 1010.55
1008.79 1008.67 1008.55 1008.43 1008.35 1008.27 1008.23 1008.19 1008.15 1008.11 1008.07 1007.99 1007.95 1007.91 1007.83 1007.83 1007.71 1007.67 1007.59 1007.59 1007.59 1007.55 1007.55 1007.55 1007.55 1007.55 1007.51 1007.51 1007.51 1007.55 1007.55 1007.59 1007.59 1007.67 1007.71 1007.71 1007.75 1007.79 1007.79 1007.83 1007.91 1007.99 1008.11 1008.31 1008.39 1008.47 1008.59 1008.67 1008.79 1008.83 1008.95 1009.03 1009.03 1009.07 1009.11 1009.11 1009.19 1009.27 1009.31 1009.39 1009.51 1009.55 1009.67 1009.79 1009.83 1009.99 1010.15 1010.35 1010.55
1008.91 1008.83 1008.67 1008.55 1008.43 1008.39 1008.31 1008.27 1008.19 1008.11 1008.07 1007.99 1007.95 1007.87 1007.83 1007.71 1007.71 1007.67 1007.63 1007.63 1007.59 1007.55 1007.59 1007.63 1007.59 1007.55 1007.55 1007.55 1007.55 1007.59 1007.59 1007.67 1007.67 1007.71 1007.71 1007.75 1007.79 1007.83 1007.83 1007.91 1007.95 1008.03 1008.23 1008.39 1008.43 1008.51 1008.55 1008.67 1008.71 1008.79 1008.87 1008.99 1008.99 1009.03 1009.07 1009.11 1009.15 1009.19 1009.27 1009.35 1009.39 1009.55 1009.67 1009.79 1009.91 1010.07 1010.19 1010.39 1010.55
1008.99 1008.91 1008.83 1008.67 1008.59 1008.55 1008.43 1008.39 1008.27 1008.19 1008.11 1007.99 1007.95 1007.87 1007.83 1007.75 1007.71 1007.71 1007.67 1007.67 1007.63 1007.63 1007.63 1007.59 1007.59 1007.55 1007.55 1007.59 1007.59 1007.67 1007.71 1007.71 1007.71 1007.79 1007.83 1007.83 1007.91 1007.95 1007.99 1007.99 1007.99 1008.03 1008.23 1008.43 1008.47 1008.55 1008.55 1008.67 1008.71 1008.75 1008.83 1008.87 1008.99 1008.99 1009.03 1009.11 1009.11 1009.19 1009.27 1009.39 1009.43 1009.55 1009.71 1009.83 1009.99 1010.11 1010.27 1010.43 1010.55
1009.07 1008.99 1008.87 1008.79 1008.71 1008.67 1008.55 1008.47 1008.35 1008.23 1008.11 1008.03 1007.99 1007.95 1007.91 1007.87 1007.83 1007.79 1007.75 1007.71 1007.71 1007.67 1007.59 1007.59 1007.55 1007.55 1007.55 1007.59 1007.63 1007.67 1007.71 1007.75 1007.79 1007.87 1007.95 1007.99 1008.03 1008.07 1008.07 1008.11 1008.03 1008.07 1008.27 1008.47 1008.51 1008.55 1008.59 1008.67 1008.67 1008.71 1008.79 1008.87 1008.95 1008.99 1009.07 1009.11 1009.15 1009.23 1009.31 1009.39 1009.55 1009.63 1009.75 1009.87 1009.99 1010.15 1010.31 1010.47 1010.59
1009.11 1009.03 1008.95 1008.87 1008.83 1008.75 1008.67 1008.55 1008.43 1008.31 1008.19 1008.15 1008.11 1008.11 1008.03 1007.99 1007.95 1007.91 1007.87 1007.83 1007.79 1007.71 1007.71 1007.67 1007.67 1007.67 1007.67 1007.67 1007.71 1007.75 1007.79 1007.83 1007.87 1007.95 1007.99 1008.07 1008.11 1008.11 1008.15 1008.15 1008.11 1008.23 1008.39 1008.51 1008.55 1008.59 1008.63 1008.67 1008.67 1008.75 1008.83 1008.91 1008.95 1008.99 1009.07 1009.15 1009.19 1009.27 1009.39 1009.51 1009.63 1009.75 1009.87 1009.99 1010.11 1010.27 1010.39 1010.55 1010.67
1009.27 1009.15 1009.07 1008.99 1008.95 1008.83 1008.75 1008.67 1008.55 1008.43 1008.35 1008.35 1008.31 1008.27 1008.27 1008.19 1008.15 1008.11 1008.07 1007.99 1007.91 1007.83 1007.83 1007.83 1007.83 1007.79 1007.83 1007.83 1007.83 1007.83 1007.91 1007.95 1007.95 1007.99 1008.07 1008.11 1008.15 1008.19 1008.27 1008.27 1008.27 1008.47 1008.59 1008.59 1008.63 1008.67 1008.67 1008.71 1008.71 1008.79 1008.83 1008.95 1008.99 1008.99 1009.07 1009.15 1009.23 1009.35 1009.51 1009.63 1009.79 1009.91 1010.03 1010.11 1010.27 1010.39 1010.47 1010.59 1010.75
1009.43 1009.31 1009.23 1009.11 1009.03 1008.99 1008.87 1008.83 1008.71 1008.63 1008.55 1008.55 1008.55 1008.51 1008.47 1008.39 1008.39 1008.31 1008.27 1008.11 1007.99 1007.95 1007.99 1007.99 1007.95 1007.95 1007.95 1007.99 1007.99 1008.03 1008.11 1008.11 1008.11 1008.11 1008.19 1008.23 1008.27 1008.35 1008.39 1008.43 1008.51 1008.63 1008.75 1008.75 1008.75 1008.71 1008.71 1008.75 1008.79 1008.83 1008.91 1008.95 1008.99 1008.99 1009.11 1009.19 1009.27 1009.43 1009.59 1009.75 1009.91 1010.03 1010.15 1010.23 1010.39 1010.51 1010.63 1010.71 1010.79
1009.55 1009.47 1009.39 1009.27 1009.19 1009.11 1009.03 1008.95 1008.83 1008.79 1008.75 1008.79 1008.75 1008.71 1008.67 1008.63 1008.59 1008.55 1008.39 1008.27 1008.11 1008.07 1008.11 1008.11 1008.11 1008.11 1008.15 1008.15 1008.27 1008.31 1008.39 1008.39 1008.39 1008.39 1008.39 1008.47 1008.47 1008.51 1008.55 1008.55 1008.67 1008.83 1008.91 1008.91 1008.87 1008.83 1008.83 1008.83 1008.83 1008.87 1008.91 1008.95 1008.99 1009.03 1009.15 1009.27 1009.39 1009.51 1009.67 1009.83 1009.95 1010.11 1010.23 1010.31 1010.43 1010.55 1010.67 1010.83 1010.83
1009.71 1009.63 1009.55 1009.39 1009.31 1009.23 1009.15 1009.11 1009.07 1008.99 1008.99 1008.99 1008.95 1008.91 1008.87 1008.83 1008.75 1008.71 1008.63 1008.47 1008.39 1008.35 1008.35 1008.35 1008.39 1008.39 1008.39 1008.47 1008.55 1008.63 1008.71 1008.75 1008.71 1008.67 1008.67 1008.67 1008.75 1008.75 1008.71 1008.75 1008.83 1008.95 1008.99 1009.03 1009.03 1008.99 1008.95 1008.87 1008.87 1008.87 1008.87 1008.87 1008.95 1009.03 1009.15 1009.31 1009.43 1009.55 1009.67 1009.83 1009.99 1010.15 1010.27 1010.35 1010.47 1010.55 1010.67 1010.79 1010.83
1009.83 1009.79 1009.71 1009.59 1009.51 1009.39 1009.31 1009.27 1009.27 1009.27 1009.23 1009.19 1009.11 1009.11 1009.07 1008.99 1008.95 1008.91 1008.83 1008.71 1008.67 1008.63 1008.63 1008.63 1008.67 1008.67 1008.71 1008.75 1008.83 1008.91 1008.99 1008.99 1008.99 1008.99 1008.95 1008.99 1008.99 1008.99 1008.95 1008.91 1008.99 1008.99 1009.07 1009.15 1009.11 1009.11 1009.03 1008.99 1008.91 1008.91 1008.87 1008.87 1008.91 1009.03 1009.15 1009.31 1009.43 1009.59 1009.75 1009.91 1010.07 1010.23 1010.39 1010.47 1010.55 1010.59 1010.67 1010.79 1010.83
1009.99 1009.95 1009.83 1009.75 1009.67 1009.55 1009.55 1009.51 1009.51 1009.51 1009.47 1009.39 1009.31 1009.27 1009.23 1009.15 1009.11 1009.03 1008.99 1008.91 1008.87 1008.83 1008.83 1008.87 1008.91 1008.95 1008.95 1008.99 1008.99 1009.07 1009.11 1009.11 1009.11 1009.11 1009.11 1009.11 1009.15 1009.11 1009.07 1008.99 1008.99 1009.03 1009.11 1009.19 1009.23 1009.19 1009.11 1009.07 1008.99 1008.99 1008.95 1008.95 1008.99 1009.07 1009.19 1009.35 1009.51 1009.67 1009.83 1009.99 1010.15 1010.31 1010.47 1010.63 1010.67 1010.75 1010.83 1010.91 1010.91
1010.15 1010.11 1010.03 1009.95 1009.87 1009.83 1009.75 1009.71 1009.71 1009.71 1009.71 1009.67 1009.55 1009.51 1009.39 1009.31 1009.27 1009.15 1009.11 1009.07 1009.03 1009.03 1009.07 1009.11 1009.11 1009.11 1009.07 1009.07 1009.11 1009.11 1009.19 1009.23 1009.23 1009.19 1009.19 1009.19 1009.19 1009.15 1009.11 1009.07 1009.07 1009.07 1009.11 1009.23 1009.27 1009.27 1009.27 1009.19 1009.15 1009.11 1009.07 1009.03 1009.11 1009.19 1009.27 1009.43 1009.59 1009.71 1009.87 1010.03 1010.19 1010.39 1010.51 1010.67 1010.79 1010.83 1010.91 1010.95 1010.99
Wind_Speed
9 8 7 7 6 6 6 5 5 5 5 6 6 6 6 6 6 6 5 6 5 5 5 6 6 6 7 9 10 11 11 11 12 12 12 12 12 12 12 12 12 12 12 12 11 11 10 10 9 8 7 7 8 8 8 8 9 10 10 10 9 10 11 13 12 13 14 14 11
10 9 8 7 7 6 6 6 6 6 6 6 6 6 6 6 6 6 6 6 6 6 6 5 6 7 8 10 10 10 11 11 12 12 12 13 13 13 12 12 12 12 12 12 11 10 9 10 9 8 7 7 7 8 9 9 9 10 11 12 10 9 10 11 12 13 13 13 12
10 10 9 8 8 7 7 6 7 7 8 7 6 6 6 6 6 6 6 6 7 6 6 6 7 8 9 10 10 10 10 10 11 11 11 12 12 12 12 11 12 12 12 11 11 10 9 9 9 8 7 7 8 8 8 9 9 10 11 12 10 8 8 8 10 10 10 10 11
11 10 10 10 10 10 9 7 8 9 9 7 7 7 7 6 6 6 6 7 7 7 7 7 7 7 8 9 9 10 10 10 11 11 11 11 12 12 12 12 12 12 12 11 11 11 11 10 8 7 7 8 9 9 8 8 9 9 9 9 8 8 8 7 8 8 8 8 9
11 10 10 10 11 11 10 9 9 9 8 7 7 7 7 6 6 6 7 7 7 7 7 8 7 7 7 8 10 10 11 11 11 11 11 11 11 12 12 12 12 12 11 11 12 12 12 11 8 7 7 8 8 8 8 9 9 9 8 7 7 7 7 7 7 7 7 7 8
11 11 11 10 11 11 10 9 10 9 8 7 8 8 8 7 7 7 7 7 7 8 9 9 8 8 8 9 10 10 10 11 10 10 11 11 11 11 12 12 12 12 11 11 12 12 12 11 8 7 7 7 8 9 9 10 9 9 8 7 7 7 7 8 7 7 7 8 9
11 11 11 11 11 11 10 10 10 9 9 8 9 10 10 9 9 9 9 8 8 8 8 8 8 8 8 9 9 10 10 10 10 11 11 11 11 11 11 12 12 12 12 12 12 12 11 11 8 7 7 7 7 8 10 10 9 9 9 8 7 7 7 8 7 7 8 10 11
10 11 11 11 11 11 11 11 10 9 9 8 9 11 12 11 11 11 10 9 8 8 7 7 8 9 10 9 9 10 10 10 10 11 11 11 11 11 12 12 12 12 12 12 12 11 11 10 8 7 7 7 6 7 9 11 11 11 10 10 8 7 7 8 8 8 9 11 12
10 10 11 11 11 11 12 12 11 10 10 9 10 11 12 11 12 11 10 9 8 8 8 7 9 10 11 11 10 10 10 10 10 10 10 10 11 11 11 11 12 12 12 12 12 12 12 9 8 7 7 7 7 8 9 11 12 12 12 10 9 9 8 8 9 9 10 11 12
10 10 10 10 11 11 11 11 11 11 11 11 11 11 11 11 11 11 10 8 8 8 9 8 9 10 10 11 11 10 10 9 10 10 10 10 11 11 11 11 11 11 11 11 11 11 11 10 9 9 9 8 9 10 11 11 12 13 12 9 9 10 11 10 10 11 11 11 12
10 10 10 9 10 10 10 11 11 11 11 11 11 11 11 11 11 10 10 8 9 10 10 9 10 10 10 10 10 10 10 10 9 10 10 11 11 12 12 11 11 11 11 11 10 10 10 9 10 11 11 10 11 11 12 12 12 13 13 10 11 11 12 12 11 11 10 11 12
10 10 9 9 10 10 10 10 10 10 10 11 11 11 11 11 11 11 10 10 11 11 10 10 10 10 10 9 9 10 10 10 10 11 11 11 12 12 12 12 12 12 12 12 10 9 9 9 11 12 13 13 11 10 11 12 12 13 13 13 12 12 12 12 12 10 10 10 11
10 10 9 9 9 10 10 10 9 9 10 11 11 11 10 10 11 11 11 12 11 10 10 10 10 10 10 10 10 10 10 10 11 11 11 11 11 12 12 12 12 12 12 12 11 10 10 10 12 13 13 14 12 11 11 12 12 13 13 13 13 13 13 13 12 11 10 10 10
10 10 10 10 10 10 10 10 9 9 9 11 10 10 10 10 10 10 11 11 11 10 10 9 9 9 10 10 10 11 11 11 11 11 12 12 11 12 12 12 12 12 12 11 11 11 12 11 12 13 13 14 13 13 13 13 12 12 12 13 13 13 13 13 13 12 11 10 10
10 10 10 10 10 10 9 10 9 9 9 10 10 10 9 9 9 9 10 10 11 10 9 9 9 9 10 11 12 12 12 12 12 12 12 12 12 12 12 12 12 12 12 11 11 12 12 13 13 13 13 14 14 14 13 13 13 12 12 12 13 13 13 13 13 11 11 11 10
10 10 10 10 10 10 9 9 8 8 9 9 9 9 9 9 8 9 9 10 10 9 9 10 10 10 10 11 12 12 12 12 12 13 13 13 13 13 13 13 13 13 12 12 12 12 12 13 13 13 13 14 14 14 13 13 13 13 12 12 12 12 12 12 12 11 10 10 10
10 10 10 10 10 10 10 10 8 8 8 9 9 9 9 8 8 8 9 10 9 9 10 11 10 10 10 10 11 11 11 12 12 12 13 13 13 13 13 13 13 13 13 13 12 12 12 12 12 12 13 13 13 13 13 13 13 12 12 12 12 12 12 11 11 10 10 10 11
10 10 10 10 10 11 11 11 10 9 9 9 9 9 9 9 8 8 9 9 10 10 11 12 11 11 11 11 10 10 10 11 12 12 12 13 13 13 13 13 13 13 12 12 12 13 13 13 12 12 12 12 12 13 13 13 12 12 12 12 12 12 12 11 10 9 9 10 11
10 10 10 10 10 11 11 11 11 11 10 10 10 9 9 10 10 9 9 10 11 11 12 12 12 12 12 12 12 11 10 11 12 13 13 13 13 13 13 13 13 12 12 12 12 12 12 13 13 12 12 12 12 12 12 12 12 12 12 12 12 12 12 12 11 10 10 11 11
10 10 10 10 10 10 11 11 11 11 11 10 10 11 11 11 11 11 11 11 11 12 12 12 12 12 12 13 13 12 11 11 12 13 13 13 13 13 13 13 13 13 12 12 12 12 12 12 12 12 12 12 12 12 12 12 12 12 12 11 12 12 12 12 12 11 11 11 11
8 9 9 9 9 10 10 10 10 11 11 11 11 11 11 11 11 12 12 12 12 12 12 13 13 13 13 13 13 13 12 11 12 12 13 13 13 13 13 13 13 12 12 11 11 12 12 12 12 12 12 12 12 12 12 11 12 12 12 11 11 11 12 12 11 11 11 11 11
5 5 6 6 7 8 8 9 9 10 10 11 11 11 11 11 12 12 12 12 12 12 13 13 13 13 13 13 13 13 13 11 12 12 12 12 13 13 12 12 12 12 12 11 11 11 11 12 11 11 10 10 11 11 12 12 11 12 12 12 12 11 11 10 10 10 10 10 10
2 3 3 4 5 6 7 7 8 9 9 10 10 11 11 11 11 12 12 12 12 12 13 12 13 13 13 13 13 13 13 12 12 13 13 13 13 12 12 11 11 11 11 10 10 10 10 10 10 9 9 9 10 11 12 12 12 11 11 11 11 11 10 9 9 9 9 9 9
3 3 3 3 3 4 5 6 7 8 8 9 10 10 11 11 11 11 11 12 12 12 12 11 11 12 13 13 13 13 14 14 14 14 14 14 13 13 12 11 10 10 10 9 8 8 8 7 7 7 7 8 9 11 12 12 11 11 10 10 10 9 8 7 7 7 7 8 7
3 2 2 2 3 3 4 5 5 6 7 8 8 9 9 10 10 10 10 11 11 12 12 12 11 11 11 12 12 13 13 13 14 14 14 14 13 13 12 10 9 8 8 8 7 8 8 8 7 6 6 7 9 10 10 11 11 10 10 9 9 8 7 7 7 7 7 7 7
3 3 3 2 3 3 3 4 4 5 5 6 6 7 8 8 8 8 9 10 10 10 11 11 11 10 10 10 11 12 12 12 12 13 13 13 13 12 11 9 8 7 7 7 7 8 9 9 8 7 7 7 8 8 9 9 9 9 9 8 8 7 7 7 7 7 7 7 7
4 3 3 3 3 3 3 3 3 4 4 5 5 6 6 6 6 7 8 8 9 9 9 9 9 9 9 9 10 11 11 11 11 12 12 12 12 12 11 9 8 7 6 6 7 8 9 9 9 8 8 8 8 8 7 7 8 8 7 7 7 7 7 7 7 7 7 6 6
5 4 4 4 3 3 3 3 3 3 4 4 4 5 5 5 6 6 7 7 7 7 7 7 7 7 6 7 9 10 11 11 10 10 10 11 11 11 10 9 8 7 6 5 5 6 7 8 9 9 9 8 8 7 7 7 6 6 6 6 6 7 7 7 7 6 6 6 6
6 5 5 5 4 4 3 3 3 3 4 4 4 4 4 5 5 6 6 6 6 6 5 5 4 4 5 6 7 8 9 9 9 8 8 9 10 10 9 9 8 7 4 2 3 5 6 7 8 9 9 9 7 6 5 5 5 5 5 5 6 6 6 6 6 6 6 6 6
6 6 6 6 5 5 5 5 4 4 4 4 3 3 4 4 4 4 4 4 4 4 4 3 3 4 5 5 5 6 6 6 6 7 7 8 8 8 8 8 7 6 3 1 3 4 5 7 8 9 10 10 8 6 5 5 5 5 5 5 6 6 7 7 7 6 6 5 6
6 6 6 6 6 6 6 6 5 5 4 3 3 3 3 3 3 3 3 3 3 2 2 3 3 4 4 4 4 4 5 5 5 5 6 6 7 7 7 7 7 5 3 1 2 4 5 6 7 8 10 10 9 7 6 5 5 5 5 5 5 5 6 5 5 5 5 5 5
6 6 6 6 6 6 6 6 5 5 4 4 4 4 4 4 4 4 3 3 3 2 2 2 2 2 3 3 3 3 3 3 4 4 4 5 5 6 6 6 6 5 2 1 2 4 5 6 7 8 9 10 8 7 7 6 5 5 5 5 5 5 5 4 4 4 5 5 5
7 7 7 7 7 7 6 6 6 5 5 5 6 6 6 6 6 5 5 4 4 3 3 3 3 3 2 2 2 2 2 2 2 3 3 3 4 5 5 5 5 3 1 1 2 4 5 6 7 7 8 9 7 6 6 6 5 4 3 3 3 3 3 3 3 4 5 5 5
7 7 7 7 7 7 7 6 6 6 7 8 8 8 8 7 7 7 6 5 5 4 4 5 4 4 4 4 4 3 3 2 2 2 2 3 3 4 4 4 3 3 2 0 2 3 4 5 6 6 7 7 6 5 5 5 4 3 2 1 0 1 1 2 2 3 4 4 4
7 7 7 7 7 7 7 7 7 8 8 9 9 9 8 8 8 7 6 5 5 5 5 5 5 5 5 5 5 4 4 4 4 3 3 3 3 3 4 4 4 4 3 1 1 3 4 4 5 5 5 5 4 4 4 5 3 2 1 1 2 2 2 2 2 2 3 4 4
7 7 7 7 7 7 7 7 8 8 9 9 9 9 9 8 8 7 6 5 5 6 6 6 5 6 6 6 6 6 6 6 5 5 4 4 4 4 4 4 4 5 4 4 3 2 2 3 3 3 3 3 3 3 3 3 2 1 1 2 3 3 3 2 3 3 3 3 4
7 7 7 7 7 7 7 8 8 8 9 9 9 9 8 8 8 7 6 6 6 7 7 6 7 7 7 7 7 7 8 7 7 6 6 6 6 5 5 5 6 6 6 6 5 4 3 3 2 2 2 3 3 2 2 1 1 2 2 3 3 3 3 3 3 3 3 2 3
7 7 7 7 7 7 8 8 8 8 9 8 8 8 8 7 7 7 7 6 7 7 7 7 8 8 8 8 8 9 9 9 8 8 8 8 7 7 7 6 7 7 6 7 7 6 5 4 3 2 2 3 2 2 2 2 2 2 3 3 3 3 3 2 2 2 3 3 4
7 7 7 7 7 8 8 8 8 8 8 7 7 7 7 7 6 6 6 6 7 7 8 8 8 8 8 8 8 8 9 9 8 8 8 8 7 7 7 7 7 6 6 6 6 6 6 5 4 3 2 2 2 2 2 2 2 2 2 3 3 3 3 2 2 2 2 3 5
7 7 7 7 8 8 8 8 8 8 7 7 7 7 7 7 6 6 6 6 7 7 7 7 7 7 7 7 7 7 7 7 7 7 7 7 6 6 6 7 7 7 6 6 6 7 7 7 6 4 3 2 2 2 2 2 2 2 2 2 2 2 2 2 1 1 1 2 4
7 7 8 8 8 8 8 8 8 7 7 7 7 6 6 6 6 6 6 6 7 7 6 6 7 7 7 6 6 6 7 7 7 6 6 6 6 6 6 7 7 7 7 7 7 8 8 9 8 5 3 2 1 1 2 2 2 2 2 2 2 2 2 1 1 0 0 1 2
Wind_Direction
201 197 194 193 191 195 200 205 206 206 206 203 203 202 203 205 206 205 204 205 208 209 210 211 212 212 210 208 206 205 206 207 209 211 213 215 216 217 217 219 221 222 223 223 222 221 220 218 219 221 223 225 227 227 227 226 225 225 226 226 228 229 230 231 232 231 229 228 227
203 200 197 194 193 195 200 204 205 206 206 206 206 205 205 206 209 209 209 209 211 212 213 214 216 216 214 212 210 209 209 210 211 213 215 218 219 219 219 219 220 221 222 223 221 221 219 218 218 219 222 223 226 228 229 228 227 228 229 229 229 230 231 233 234 234 233 232 229
204 202 200 198 198 198 200 202 204 205 206 208 207 206 207 209 212 214 214 213 213 215 216 217 218 218 218 216 213 212 212 214 214 216 217 219 220 221 221 220 220 221 221 222 221 221 220 217 217 218 220 222 224 226 228 230 229 231 231 231 230 230 231 233 235 235 235 234 232
206 204 203 203 203 203 203 204 205 205 206 207 208 209 210 211 214 216 217 218 218 218 219 220 221 220 219 219 216 216 216 217 218 219 220 221 222 222 222 222 222 221 221 221 222 222 221 218 218 219 222 224 226 228 228 228 227 229 231 231 231 231 231 234 234 234 235 236 235
207 206 206 206 207 207 208 209 207 206 205 205 207 208 210 211 214 216 218 219 219 220 221 222 224 223 221 220 219 219 219 220 220 222 223 223 223 223 223 222 222 222 221 221 221 222 221 219 219 221 224 225 226 228 228 228 228 229 229 230 230 231 232 233 233 234 234 235 234
207 207 207 209 209 210 211 212 211 210 207 205 207 208 209 210 212 215 217 220 222 223 223 225 227 228 226 223 223 222 222 222 222 223 225 226 225 224 224 224 223 223 222 221 221 221 221 219 220 222 224 227 230 231 231 229 229 230 229 229 228 229 230 232 233 233 233 233 232
210 209 209 210 211 212 213 214 214 213 211 210 211 212 212 213 214 216 218 221 223 223 223 224 225 228 228 226 226 225 224 224 224 225 226 228 228 227 226 225 225 224 224 223 222 221 221 220 221 222 223 225 230 232 231 229 229 230 229 229 227 226 228 231 232 233 233 233 232
214 213 212 212 213 214 214 215 216 215 214 213 214 216 217 218 219 220 222 224 224 225 224 224 225 226 228 228 229 228 227 227 227 227 227 229 230 230 229 228 228 227 226 225 224 222 221 221 222 223 224 224 228 230 230 229 229 230 230 230 228 226 225 228 228 230 232 233 232
215 214 214 214 215 216 216 217 218 218 218 218 219 220 221 222 223 224 226 227 227 227 227 227 226 227 228 230 231 232 231 230 231 230 230 231 232 232 232 231 231 229 228 226 225 224 223 223 223 224 225 225 226 228 228 227 228 229 231 232 231 229 226 227 227 229 231 232 233
215 214 213 215 216 217 218 219 220 222 223 224 225 225 225 224 226 227 228 230 230 230 230 230 229 229 230 231 232 233 234 234 234 234 233 233 233 233 234 234 233 232 230 228 227 226 225 225 225 226 227 227 229 230 230 227 227 228 230 231 231 231 230 229 229 230 230 231 232
217 216 214 215 216 217 219 221 223 224 226 228 229 229 229 227 227 228 229 230 232 232 232 232 232 233 233 233 234 234 234 234 234 234 234 234 234 234 235 235 235 234 233 230 228 226 225 225 227 228 229 230 231 232 232 229 227 228 230 231 232 233 233 232 230 230 230 231 232
220 219 218 217 217 218 219 221 224 225 227 229 231 232 231 230 229 228 229 230 233 234 234 233 233 234 235 236 235 235 235 236 236 236 236 236 236 236 236 236 236 236 235 233 230 228 227 227 228 230 231 232 232 233 232 230 228 228 230 232 233 234 235 235 233 231 230 230 232
222 222 221 220 219 219 220 222 225 226 228 229 231 232 232 232 230 229 230 231 233 234 235 233 233 233 235 236 236 236 236 236 237 237 238 239 238 238 238 237 237 237 236 235 232 230 229 229 230 232 233 234 234 234 234 232 229 229 229 231 233 234 236 237 235 233 230 228 230
222 223 223 222 221 221 221 223 226 228 230 230 231 231 232 232 231 230 230 231 232 234 234 234 232 232 233 234 236 236 237 238 238 239 240 240 241 240 240 239 238 237 237 236 233 232 231 231 232 233 235 236 237 237 237 235 232 230 230 230 232 234 236 238 237 234 230 226 228
223 223 223 223 223 223 223 224 227 229 231 232 232 232 232 232 230 230 231 232 233 233 234 234 234 232 232 233 235 237 239 240 241 241 241 242 241 241 240 240 239 238 237 236 234 233 233 233 234 235 237 238 239 239 239 238 237 234 232 231 232 234 236 237 237 233 229 224 225
226 225 225 224 224 225 226 226 228 230 232 232 232 232 233 233 231 230 231 232 233 233 233 233 235 234 233 232 234 237 240 242 242 242 242 243 242 241 241 241 240 239 238 236 236 235 234 234 235 236 238 239 241 241 241 241 240 238 236 234 234 235 236 237 236 232 227 223 223
230 229 227 227 227 228 229 229 232 233 234 234 234 234 234 234 233 231 230 231 232 233 234 234 235 235 235 234 233 235 238 241 241 242 242 242 243 242 242 241 241 240 239 238 237 236 235 234 235 236 238 239 241 242 242 242 241 239 237 236 236 236 236 235 233 229 224 221 221
235 233 231 231 231 231 232 233 236 238 239 239 238 238 237 237 236 234 233 231 233 235 237 237 236 237 237 237 235 235 236 238 240 240 241 242 243 244 244 243 242 241 240 239 238 238 237 236 236 237 237 239 240 242 242 242 241 239 237 236 236 236 235 233 228 223 219 217 219
239 238 236 235 235 235 236 236 238 240 243 244 243 243 242 241 241 239 238 235 235 237 238 240 239 239 239 239 238 237 237 238 240 241 242 243 244 245 245 245 244 243 242 240 240 239 239 238 238 238 238 238 239 240 241 241 240 238 237 237 236 235 234 231 226 221 217 216 218
245 244 243 241 240 240 240 240 241 243 244 245 246 246 246 245 244 243 242 241 239 239 240 241 242 242 241 241 241 240 239 240 241 242 244 244 245 245 246 246 246 245 243 241 241 240 240 240 239 239 238 238 239 240 240 240 239 238 237 237 236 235 233 231 227 222 219 218 218
254 255 255 254 252 250 249 248 248 248 248 249 248 248 248 248 247 246 246 246 245 244 244 244 244 244 244 243 243 242 242 242 243 244 245 246 246 246 247 247 247 246 244 242 241 241 240 241 241 240 240 239 239 240 240 240 239 239 238 237 236 235 234 232 229 225 221 219 217
271 274 275 274 270 266 263 261 259 258 256 255 254 253 252 251 250 249 249 249 249 248 247 247 246 246 246 245 245 245 244 244 244 245 247 247 248 248 248 248 247 247 246 243 242 242 242 242 242 241 239 239 238 239 240 241 241 241 240 239 238 237 235 233 231 228 224 219 216
317 306 295 285 278 273 269 267 264 263 261 259 258 257 256 254 253 252 252 251 250 249 249 249 248 247 247 247 247 247 247 247 246 247 247 249 250 250 249 249 248 247 246 244 242 241 241 242 241 238 236 235 237 240 242 243 243 243 243 242 241 238 235 232 230 227 223 218 214
345 328 310 292 281 272 267 263 259 257 256 256 256 256 255 255 255 255 254 252 251 250 250 250 249 249 249 249 248 248 248 248 248 248 249 249 250 251 251 251 249 248 246 244 240 236 232 233 233 232 230 231 237 241 244 245 244 244 244 244 242 239 234 229 225 223 220 216 212
347 333 320 309 296 284 273 263 257 255 253 253 253 254 254 254 254 254 253 253 252 251 251 251 251 251 250 250 249 249 249 249 249 250 250 251 251 252 252 252 250 248 246 243 234 225 221 223 224 224 226 230 237 242 245 246 246 246 245 243 241 237 232 225 221 219 218 216 213
349 342 335 326 311 297 286 277 271 267 264 262 258 256 254 253 252 251 250 250 250 250 250 251 251 251 251 251 250 249 248 248 248 249 250 252 253 253 252 252 249 248 245 240 227 218 213 215 218 221 224 230 238 243 246 247 246 245 243 240 237 234 229 224 220 218 218 217 214
356 353 347 336 322 310 302 297 289 283 278 273 267 263 260 257 254 250 248 247 248 248 249 249 250 249 249 250 250 249 248 247 248 248 250 252 254 254 254 252 251 248 243 232 220 212 210 212 215 218 224 234 240 244 247 248 246 243 239 236 233 230 226 223 220 217 214 214 212
4 358 352 342 334 328 322 313 302 293 288 283 279 276 274 269 263 257 253 250 249 248 247 246 247 247 247 248 248 248 248 249 249 249 251 252 254 255 255 255 254 253 248 233 215 208 208 211 213 216 222 230 239 244 246 247 245 240 235 232 230 228 225 224 219 214 210 208 207
8 1 356 353 350 346 342 334 325 319 312 305 298 291 283 275 269 264 261 259 255 252 250 248 246 244 245 246 248 251 252 253 253 254 254 255 256 256 256 257 258 259 256 230 206 203 206 210 213 215 218 222 231 238 241 240 238 235 232 230 227 223 221 221 217 212 207 204 201
11 6 3 2 0 359 357 353 347 340 331 321 312 302 291 280 275 274 272 270 266 263 262 265 261 258 256 257 260 262 262 261 261 261 260 260 260 261 262 263 265 267 266 210 196 201 207 210 213 215 217 218 226 233 239 237 235 232 230 230 227 224 222 221 217 212 206 199 197
16 13 11 11 11 9 7 3 357 351 346 339 334 328 323 320 319 318 313 307 300 293 286 277 269 267 268 270 273 275 275 275 273 271 270 270 271 274 275 276 276 278 277 174 189 201 208 212 215 217 217 217 223 231 237 238 237 234 232 230 228 223 220 217 211 206 200 195 193
20 20 20 21 20 18 15 11 7 6 6 9 12 13 14 14 12 8 2 355 348 340 327 305 291 286 284 285 283 284 285 286 286 285 285 287 288 289 289 288 287 288 289 167 192 204 212 215 218 219 219 216 222 230 237 240 240 240 239 237 233 227 221 213 206 199 195 191 190
22 23 26 28 26 25 22 19 19 23 30 36 37 35 32 31 28 25 22 17 11 10 12 13 12 11 6 359 350 338 329 321 317 313 309 306 302 301 299 296 295 304 323 169 201 211 217 220 222 223 222 218 223 231 237 241 242 243 243 241 233 221 209 200 195 192 191 191 191
22 25 28 31 30 29 28 27 30 35 41 44 42 39 35 33 30 28 25 21 21 26 30 32 34 35 36 35 31 26 20 14 8 357 343 328 319 314 310 306 321 357 27 96 217 221 223 225 227 228 226 221 226 233 237 239 240 241 239 237 202 159 163 174 173 177 180 183 186
22 24 28 30 31 31 32 34 37 41 44 44 41 38 35 32 29 24 21 19 29 38 43 45 46 49 51 50 47 42 36 30 26 20 11 359 345 337 329 323 348 13 25 3 266 241 235 234 235 235 232 228 233 236 237 238 238 234 211 92 79 78 88 111 123 139 156 170 178
24 25 27 29 31 32 34 37 41 44 45 43 39 36 33 31 28 22 17 18 36 46 51 51 53 55 55 54 51 45 39 31 27 25 22 16 5 355 350 350 10 18 16 356 329 294 268 257 252 246 240 239 241 238 234 230 221 171 101 86 82 82 86 97 103 111 125 150 171
26 26 27 29 31 33 35 38 41 44 44 43 39 36 33 32 28 22 17 20 39 47 50 49 50 50 51 52 50 45 39 33 30 30 30 27 20 15 14 20 28 26 17 1 350 337 320 301 281 260 246 245 239 228 207 181 151 121 107 100 97 94 96 103 111 119 126 141 170
27 27 28 30 32 34 36 39 41 42 43 42 41 39 36 35 31 25 22 25 39 45 47 46 46 47 49 51 52 47 41 37 35 35 36 34 30 27 28 34 37 33 22 7 357 349 339 325 303 269 242 237 222 202 175 150 140 132 126 119 111 104 100 105 118 131 145 160 183
28 29 31 33 35 37 39 41 41 40 39 39 40 40 39 39 36 33 31 35 43 48 49 48 47 48 51 54 55 52 47 42 41 40 40 39 35 33 33 39 39 36 28 14 2 352 343 333 316 283 244 228 205 183 165 153 148 140 130 118 110 102 96 94 101 120 149 177 198
30 31 33 36 37 40 42 44 42 40 37 36 37 39 39 39 40 40 41 45 50 53 54 54 53 54 57 60 61 58 54 49 47 46 46 44 40 36 35 38 37 35 31 22 8 357 348 340 329 306 266 240 202 173 155 149 147 142 133 118 108 98 91 82 83 97 143 197 215
33 34 36 38 40 42 44 46 45 41 37 35 36 37 38 40 43 44 47 51 54 56 58 59 59 61 65 68 68 66 62 57 52 51 51 49 45 40 36 35 33 31 28 24 13 3 355 348 339 323 293 258 202 151 133 132 144 153 152 137 125 115 105 97 92 112 205 232 240